2016-07-10 00:03:35 r, 20.88m,0000000000Hz,0001215587c,0000002.638s, 029.6C,00002191
2016-07-10 00:13:35 r, 20.94m,0000000001Hz,0001292612c,0000002.805s, 029.6C,00002191
2016-07-10 00:23:38 r, 20.96m,0000000001Hz,0001316600c,0000002.857s, 029.6C,00002191
2016-07-10 00:33:35 r, 20.93m,0000000000Hz,0001283551c,0000002.785s, 029.3C,00002191
2016-07-10 00:43:35 r, 20.82m,0000000000Hz,0001162993c,0000002.524s, 029.3C,00002191
2016-07-10 00:53:35 r, 20.79m,0000000001Hz,0001123689c,0000002.439s, 029.3C,00002191
2016-07-10 01:03:35 r, 20.72m,0000000000Hz,0001046464c,0000002.271s, 029.3C,00002191
2016-07-10 01:13:35 r, 20.64m,0000000000Hz,0000974133c,0000002.114s, 029.3C,00002191
2016-07-10 01:23:35 r, 20.74m,0000000001Hz,0001068309c,0000002.318s, 029.0C,00002191
2016-07-10 01:33:35 r, 20.85m,0000000000Hz,0001193224c,0000002.589s, 029.0C,00002191
2016-07-10 01:43:35 r, 20.86m,0000000000Hz,0001202275c,0000002.609s, 028.6C,00002191
2016-07-10 01:53:35 r, 20.94m,0000000000Hz,0001287810c,0000002.795s, 028.6C,00002191
2016-07-10 02:03:35 r, 20.96m,0000000001Hz,0001315323c,0000002.854s, 028.3C,00002191
2016-07-10 02:13:35 r, 20.22m,0000000001Hz,0000671113c,0000001.456s, 028.3C,00002191
2016-07-10 02:23:35 r, 20.31m,0000000001Hz,0000726864c,0000001.577s, 028.6C,00002191
2016-07-10 02:33:35 r, 20.52m,0000000000Hz,0000882183c,0000001.914s, 028.6C,00002191
2016-07-10 02:43:35 r, 20.53m,0000000000Hz,0000891805c,0000001.935s, 028.6C,00002191
2016-07-10 02:53:35 r, 20.51m,0000000001Hz,0000868578c,0000001.885s, 029.0C,00002191
2016-07-10 03:03:35 r, 20.37m,0000000001Hz,0000769937c,0000001.671s, 029.0C,00002191
2016-07-10 03:13:35 r, 20.54m,0000000001Hz,0000894923c,0000001.942s, 029.0C,00002191
2016-07-10 03:23:35 r, 20.04m,0000000001Hz,0000566237c,0000001.229s, 028.6C,00002191
2016-07-10 03:33:35 r, 19.70m,0000000001Hz,0000411942c,0000000.894s, 028.6C,00002191
2016-07-10 03:43:35 r, 19.38m,0000000001Hz,0000310889c,0000000.675s, 028.6C,00002191
2016-07-10 03:53:35 r, 19.10m,0000000002Hz,0000238049c,0000000.517s, 028.6C,00002191
2016-07-10 04:03:35 r, 18.77m,0000000002Hz,0000176995c,0000000.384s, 029.0C,00002191
2016-07-10 04:13:35 r, 17.90m,0000000005Hz,0000079732c,0000000.173s, 029.0C,00002191
2016-07-10 04:23:36 r, 16.86m,0000000015Hz,0000030489c,0000000.066s, 029.0C,00002191
2016-07-10 04:33:35 r, 15.50m,0000000053Hz,0000008713c,0000000.019s, 029.0C,00002191
2016-07-10 04:43:35 r, 14.00m,0000000212Hz,0000000000c,0000000.000s, 029.0C,00002191
2016-07-10 04:53:35 r, 12.65m,0000000738Hz,0000000000c,0000000.000s, 029.0C,00002191
2016-07-10 05:03:35 r, 11.18m,0000002844Hz,0000000000c,0000000.000s, 028.6C,00002191
2016-07-10 05:13:35 r, 09.81m,0000010053Hz,0000000000c,0000000.000s, 028.6C,00002191
2016-07-10 05:23:35 r, 08.53m,0000032899Hz,0000000000c,0000000.000s, 028.6C,00002191
2016-07-10 05:33:35 r, 07.14m,0000117685Hz,0000000000c,0000000.000s, 028.6C,00002191
2016-07-10 05:43:35 r, 06.91m,0000146355Hz,0000000000c,0000000.000s, 028.6C,00002191
2016-07-10 05:53:35 r, 06.41m,0000229574Hz,0000000000c,0000000.000s, 028.6C,00002191
2016-07-10 06:03:35 r, 05.99m,0000338908Hz,0000000000c,0000000.000s, 028.6C,00002191
2016-07-10 06:13:35 r, 00.00m,0000473405Hz,0000000000c,0000000.000s, 029.0C,00002191
2016-07-10 06:23:35 r, 00.00m,0000595515Hz,0000000000c,0000000.000s, 029.0C,00002191
2016-07-10 06:33:35 r, 00.00m,0000595510Hz,0000000000c,0000000.000s, 029.3C,00002191
2016-07-10 06:43:35 r, 00.00m,0000595472Hz,0000000000c,0000000.000s, 029.6C,00002191
2016-07-10 06:53:37 r, 00.00m,0000595416Hz,0000000000c,0000000.000s, 029.9C,00002191
2016-07-10 07:03:35 r, 00.00m,0000595354Hz,0000000000c,0000000.000s, 030.2C,00002191
2016-07-10 07:13:35 r, 00.00m,0000595330Hz,0000000000c,0000000.000s, 030.6C,00002191
2016-07-10 07:23:36 r, 00.00m,0000595204Hz,0000000000c,0000000.000s, 031.2C,00002191
2016-07-10 07:33:35 r, 00.00m,0000595201Hz,0000000000c,0000000.000s, 032.5C,00002191
2016-07-10 07:43:35 r, 00.00m,0000595187Hz,0000000000c,0000000.000s, 033.1C,00002191
2016-07-10 07:53:35 r, 00.00m,0000595169Hz,0000000000c,0000000.000s, 033.8C,00002191
2016-07-10 08:03:35 r, 00.00m,0000595197Hz,0000000000c,0000000.000s, 033.1C,00002191
2016-07-10 08:13:35 r, 00.00m,0000595200Hz,0000000000c,0000000.000s, 033.8C,00002191
2016-07-10 08:23:35 r, 00.00m,0000594917Hz,0000000000c,0000000.000s, 035.4C,00002191
2016-07-10 08:33:35 r, 00.00m,0000594704Hz,0000000000c,0000000.000s, 037.3C,00002191
2016-07-10 08:43:35 r, 00.00m,0000594538Hz,0000000000c,0000000.000s, 038.3C,00002191
2016-07-10 08:53:35 r, 00.00m,0000594481Hz,0000000000c,0000000.000s, 039.0C,00002191
2016-07-10 09:03:35 r, 00.00m,0000594538Hz,0000000000c,0000000.000s, 038.3C,00002191
2016-07-10 09:13:35 r, 00.00m,0000594502Hz,0000000000c,0000000.000s, 038.3C,00002191
2016-07-10 09:23:35 r, 00.00m,0000594442Hz,0000000000c,0000000.000s, 039.3C,00002191
2016-07-10 09:33:35 r, 00.00m,0000594320Hz,0000000000c,0000000.000s, 039.9C,00002191
2016-07-10 09:43:35 r, 00.00m,0000594141Hz,0000000000c,0000000.000s, 040.9C,00002191
2016-07-10 09:53:35 r, 00.00m,0000594042Hz,0000000000c,0000000.000s, 041.5C,00002191
2016-07-10 10:03:35 r, 00.00m,0000594018Hz,0000000000c,0000000.000s, 041.2C,00002191
2016-07-10 10:13:35 r, 00.00m,0000594085Hz,0000000000c,0000000.000s, 040.9C,00002191
2016-07-10 10:23:35 r, 00.00m,0000594245Hz,0000000000c,0000000.000s, 039.9C,00002191
2016-07-10 10:33:35 r, 00.00m,0000594172Hz,0000000000c,0000000.000s, 039.9C,00002191
2016-07-10 10:43:35 r, 00.00m,0000594140Hz,0000000000c,0000000.000s, 040.6C,00002191
2016-07-10 10:53:35 r, 00.00m,0000594113Hz,0000000000c,0000000.000s, 040.9C,00002191
2016-07-10 11:03:35 r, 00.00m,0000594119Hz,0000000000c,0000000.000s, 040.9C,00002191
2016-07-10 11:13:36 r, 00.00m,0000594077Hz,0000000000c,0000000.000s, 040.9C,00002191
2016-07-10 11:23:35 r, 00.00m,0000594040Hz,0000000000c,0000000.000s, 041.2C,00002191
2016-07-10 11:33:35 r, 00.00m,0000594154Hz,0000000000c,0000000.000s, 040.6C,00002191
2016-07-10 11:43:35 r, 00.00m,0000594078Hz,0000000000c,0000000.000s, 040.9C,00002191
2016-07-10 11:53:35 r, 00.00m,0000593860Hz,0000000000c,0000000.000s, 041.5C,00002191
2016-07-10 12:03:35 r, 00.00m,0000593930Hz,0000000000c,0000000.000s, 042.2C,00002191
2016-07-10 12:13:35 r, 00.00m,0000593857Hz,0000000000c,0000000.000s, 042.8C,00002191
2016-07-10 12:23:35 r, 00.00m,0000593926Hz,0000000000c,0000000.000s, 042.5C,00002191
2016-07-10 12:33:35 r, 00.00m,0000593990Hz,0000000000c,0000000.000s, 041.9C,00002191
2016-07-10 12:43:35 r, 00.00m,0000593919Hz,0000000000c,0000000.000s, 041.9C,00002191
2016-07-10 12:53:35 r, 00.00m,0000593907Hz,0000000000c,0000000.000s, 042.2C,00002191
2016-07-10 13:03:35 r, 00.00m,0000593955Hz,0000000000c,0000000.000s, 042.5C,00002191
2016-07-10 13:13:35 r, 00.00m,0000593701Hz,0000000000c,0000000.000s, 043.5C,00002191
2016-07-10 13:23:36 r, 00.00m,0000593852Hz,0000000000c,0000000.000s, 043.5C,00002191
2016-07-10 13:33:35 r, 00.00m,0000593885Hz,0000000000c,0000000.000s, 042.8C,00002191
2016-07-10 13:43:35 r, 00.00m,0000593933Hz,0000000000c,0000000.000s, 042.8C,00002191
2016-07-10 13:53:35 r, 00.00m,0000593901Hz,0000000000c,0000000.000s, 042.5C,00002191
2016-07-10 14:03:35 r, 00.00m,0000594172Hz,0000000000c,0000000.000s, 041.5C,00002191
2016-07-10 14:13:36 r, 00.00m,0000594219Hz,0000000000c,0000000.000s, 040.6C,00002191
2016-07-10 14:23:35 r, 00.00m,0000594236Hz,0000000000c,0000000.000s, 039.9C,00002191
2016-07-10 14:33:35 r, 00.00m,0000594187Hz,0000000000c,0000000.000s, 040.6C,00002191
2016-07-10 14:43:35 r, 00.00m,0000594085Hz,0000000000c,0000000.000s, 041.2C,00002191
2016-07-10 14:53:35 r, 00.00m,0000594033Hz,0000000000c,0000000.000s, 041.2C,00002191
2016-07-10 15:03:35 r, 00.00m,0000593907Hz,0000000000c,0000000.000s, 041.9C,00002191
2016-07-10 15:13:35 r, 00.00m,0000593689Hz,0000000000c,0000000.000s, 043.8C,00002191
2016-07-10 15:23:37 r, 00.00m,0000593532Hz,0000000000c,0000000.000s, 044.8C,00002191
2016-07-10 15:33:35 r, 00.00m,0000593596Hz,0000000000c,0000000.000s, 044.8C,00002191
2016-07-10 15:43:36 r, 00.00m,0000593731Hz,0000000000c,0000000.000s, 044.1C,00002191
2016-07-10 15:53:35 r, 00.00m,0000593466Hz,0000000000c,0000000.000s, 046.0C,00002191
2016-07-10 16:03:35 r, 00.00m,0000593314Hz,0000000000c,0000000.000s, 046.7C,00002191
2016-07-10 16:13:35 r, 00.00m,0000593295Hz,0000000000c,0000000.000s, 046.7C,00002191
2016-07-10 16:23:35 r, 00.00m,0000592747Hz,0000000000c,0000000.000s, 049.9C,00002191
2016-07-10 16:33:35 r, 00.00m,0000592319Hz,0000000000c,0000000.000s, 052.8C,00002191
2016-07-10 16:43:39 r, 00.00m,0000592230Hz,0000000000c,0000000.000s, 053.5C,00002191
2016-07-10 16:53:35 r, 00.00m,0000592391Hz,0000000000c,0000000.000s, 053.5C,00002191
2016-07-10 17:03:35 r, 00.00m,0000592768Hz,0000000000c,0000000.000s, 050.9C,00002191
2016-07-10 17:13:35 r, 00.00m,0000592577Hz,0000000000c,0000000.000s, 050.9C,00002191
2016-07-10 17:23:36 r, 00.00m,0000592423Hz,0000000000c,0000000.000s, 052.2C,00002191
2016-07-10 17:33:35 r, 00.00m,0000592570Hz,0000000000c,0000000.000s, 052.2C,00002191
2016-07-10 17:43:35 r, 00.00m,0000592522Hz,0000000000c,0000000.000s, 052.2C,00002191
2016-07-10 17:53:35 r, 00.00m,0000592562Hz,0000000000c,0000000.000s, 051.8C,00002191
2016-07-10 18:03:35 r, 00.00m,0000592804Hz,0000000000c,0000000.000s, 050.9C,00002191
2016-07-10 18:13:37 r, 00.00m,0000593288Hz,0000000000c,0000000.000s, 047.7C,00002191
2016-07-10 18:23:35 r, 00.00m,0000593260Hz,0000000000c,0000000.000s, 048.0C,00002191
2016-07-10 18:33:35 r, 00.00m,0000593482Hz,0000000000c,0000000.000s, 046.7C,00002191
2016-07-10 18:43:36 r, 00.00m,0000593578Hz,0000000000c,0000000.000s, 046.0C,00002191
2016-07-10 18:53:35 r, 00.00m,0000593587Hz,0000000000c,0000000.000s, 045.4C,00002191
2016-07-10 19:03:35 r, 00.00m,0000593802Hz,0000000000c,0000000.000s, 044.4C,00002191
2016-07-10 19:13:36 r, 00.00m,0000593778Hz,0000000000c,0000000.000s, 044.1C,00002191
2016-07-10 19:23:36 r, 00.00m,0000594004Hz,0000000000c,0000000.000s, 042.8C,00002191
2016-07-10 19:33:35 r, 00.00m,0000594301Hz,0000000000c,0000000.000s, 041.2C,00002191
2016-07-10 19:43:36 r, 00.00m,0000594242Hz,0000000000c,0000000.000s, 040.9C,00002191
2016-07-10 19:53:35 r, 00.00m,0000594228Hz,0000000000c,0000000.000s, 040.2C,00002191
2016-07-10 20:03:36 r, 00.00m,0000594280Hz,0000000000c,0000000.000s, 039.6C,00002191
2016-07-10 20:13:35 r, 00.00m,0000594428Hz,0000000000c,0000000.000s, 039.0C,00002191
2016-07-10 20:23:35 r, 00.00m,0000594483Hz,0000000000c,0000000.000s, 038.3C,00002191
2016-07-10 20:33:35 r, 00.00m,0000594554Hz,0000000000c,0000000.000s, 038.0C,00002191
2016-07-10 20:43:35 r, 00.00m,0000594641Hz,0000000000c,0000000.000s, 037.3C,00002191
2016-07-10 20:53:35 r, 00.00m,0000420040Hz,0000000000c,0000000.000s, 036.7C,00002191
2016-07-10 21:03:35 r, 05.94m,0000358375Hz,0000000000c,0000000.000s, 036.4C,00002191
2016-07-10 21:13:36 r, 06.64m,0000185798Hz,0000000000c,0000000.000s, 035.7C,00002191
2016-07-10 21:23:35 r, 07.18m,0000114011Hz,0000000000c,0000000.000s, 035.4C,00002191
2016-07-10 21:33:36 r, 07.87m,0000060213Hz,0000000000c,0000000.000s, 034.8C,00002191
2016-07-10 21:43:35 r, 08.72m,0000027447Hz,0000000000c,0000000.000s, 034.4C,00002191
2016-07-10 21:53:36 r, 09.95m,0000008946Hz,0000000000c,0000000.000s, 034.1C,00002191
2016-07-10 22:03:36 r, 11.54m,0000002057Hz,0000000000c,0000000.000s, 034.1C,00002191
2016-07-10 22:13:36 r, 12.86m,0000000604Hz,0000000000c,0000000.000s, 034.1C,00002191
2016-07-10 22:23:36 r, 14.47m,0000000138Hz,0000000000c,0000000.000s, 034.1C,00002191
2016-07-10 22:33:35 r, 15.82m,0000000040Hz,0000011645c,0000000.025s, 034.4C,00002191
2016-07-10 22:43:36 r, 16.98m,0000000014Hz,0000034025c,0000000.074s, 034.1C,00002191
2016-07-10 22:53:35 r, 18.03m,0000000005Hz,0000089214c,0000000.194s, 034.1C,00002191
2016-07-10 23:03:36 r, 18.85m,0000000002Hz,0000188140c,0000000.408s, 034.1C,00002191
2016-07-10 23:13:35 r, 19.22m,0000000002Hz,0000265841c,0000000.577s, 033.8C,00002191
2016-07-10 23:23:35 r, 19.48m,0000000001Hz,0000338659c,0000000.735s, 033.8C,00002191
2016-07-10 23:33:36 r, 19.67m,0000000001Hz,0000402119c,0000000.873s, 033.5C,00002191
2016-07-10 23:43:35 r, 19.62m,0000000002Hz,0000381002c,0000000.827s, 033.1C,00002191
2016-07-10 23:53:36 r, 19.70m,0000000001Hz,0000411821c,0000000.894s, 033.1C,00002191
